| time (UTC) | temp F | wind direction | speed MPH | gust MPH | rain 1hr in | rain 24hr in | rain mn in | humidity % | barometer mb |
| 20260506114003 | 53 | 0.0 | 1.0 | 0.00 | 0.00 | 0.00 | 84 | 1019.6 | |
| 20260506113503 | 53 | 0.0 | 1.0 | 0.00 | 0.00 | 0.00 | 84 | 1019.5 | |
| 20260506113003 | 53 | 0.0 | 1.0 | 0.00 | 0.00 | 0.00 | 84 | 1019.5 | |
| 20260506112503 | 53 | 0.0 | 1.0 | 0.00 | 0.00 | 0.00 | 84 | 1019.4 | |
| 20260506112023 | 53 | 0.0 | 1.0 | 0.00 | 0.00 | 0.00 | 83 | 1019.4 | |
| 20260506111503 | 53 | 0.0 | 1.0 | 0.00 | 0.00 | 0.00 | 83 | 1019.5 | |
| 20260506111003 | 54 | 0.0 | 1.0 | 0.00 | 0.00 | 0.00 | 83 | 1019.3 | |
| 20260506110503 | 54 | 0.0 | 1.0 | 0.00 | 0.00 | 0.00 | 82 | 1019.4 | |
| 20260506110003 | 54 | 0.0 | 1.0 | 0.00 | 0.00 | 0.00 | 81 | 1019.4 | |
| 20260506105503 | 54 | 0.0 | 1.0 | 0.00 | 0.00 | 0.00 | 81 | 1019.3 | |
| 20260506105002 | 54 | 0.0 | 1.0 | 0.00 | 0.00 | 0.00 | 81 | 1019.3 | |
| 20260506104504 | 55 | 0.0 | 1.0 | 0.00 | 0.00 | 0.00 | 81 | 1019.3 | |
| 20260506104003 | 55 | 0.0 | 1.0 | 0.00 | 0.00 | 0.00 | 81 | 1019.3 | |
| 20260506103502 | 55 | 0.0 | 1.0 | 0.00 | 0.00 | 0.00 | 80 | 1019.2 | |
| 20260506103005 | 55 | 0.0 | 1.0 | 0.00 | 0.00 | 0.00 | 80 | 1019.3 | |
| 20260506102505 | 56 | 0.0 | 1.0 | 0.00 | 0.00 | 0.00 | 80 | 1019.3 | |
| 20260506102005 | 56 | 0.0 | 1.0 | 0.00 | 0.00 | 0.00 | 80 | 1019.4 | |
| 20260506101504 | 56 | 0.0 | 1.0 | 0.00 | 0.00 | 0.00 | 80 | 1019.2 | |
| 20260506101005 | 56 | 0.0 | 1.0 | 0.00 | 0.00 | 0.00 | 80 | 1019.3 | |
| 20260506100505 | 56 | 0.0 | 1.0 | 0.00 | 0.00 | 0.00 | 80 | 1019.4 | |
| 20260506100005 | 57 | 0.0 | 1.0 | 0.00 | 0.00 | 0.00 | 81 | 1019.2 | |
| 20260506095505 | 57 | 0.0 | 1.0 | 0.00 | 0.00 | 0.00 | 81 | 1019.2 | |
| 20260506095004 | 57 | 0.0 | 2.0 | 0.00 | 0.00 | 0.00 | 81 | 1019.2 | |
| 20260506094505 | 57 | 0.0 | 1.0 | 0.00 | 0.00 | 0.00 | 81 | 1019.2 | |
| 20260506094005 | 57 | 0.0 | 1.0 | 0.00 | 0.00 | 0.00 | 81 | 1019.3 | |
| 20260506093505 | 57 | 0 | 1.0 | 2.0 | 0.00 | 0.00 | 0.00 | 81 | 1019.2 |
| 20260506093005 | 57 | 0.0 | 2.0 | 0.00 | 0.00 | 0.00 | 81 | 1019.3 | |
| 20260506092505 | 57 | 0.0 | 1.0 | 0.00 | 0.00 | 0.00 | 81 | 1019.3 | |
| 20260506092004 | 58 | 0 | 1.0 | 2.0 | 0.00 | 0.00 | 0.00 | 81 | 1019.4 |
| 20260506091505 | 58 | 338 | 1.0 | 3.0 | 0.00 | 0.00 | 0.00 | 81 | 1019.3 |
| 20260506091025 | 58 | 338 | 1.0 | 3.0 | 0.00 | 0.00 | 0.00 | 81 | 1019.3 |
| 20260506090545 | 58 | 338 | 1.0 | 3.0 | 0.00 | 0.00 | 0.00 | 82 | 1019.3 |
| 20260506090005 | 58 | 338 | 1.0 | 3.0 | 0.00 | 0.00 | 0.00 | 82 | 1019.2 |
| 20260506085505 | 58 | 338 | 1.0 | 2.0 | 0.00 | 0.00 | 0.00 | 82 | 1019.2 |
| 20260506085004 | 58 | 338 | 1.0 | 2.0 | 0.00 | 0.00 | 0.00 | 81 | 1019.2 |
| 20260506084525 | 58 | 0.0 | 2.0 | 0.00 | 0.00 | 0.00 | 81 | 1019.4 | |
| 20260506084004 | 58 | 315 | 1.0 | 2.0 | 0.00 | 0.00 | 0.00 | 81 | 1019.3 |
| 20260506083504 | 58 | 338 | 1.0 | 2.0 | 0.00 | 0.00 | 0.00 | 81 | 1019.3 |
| 20260506083004 | 58 | 338 | 1.0 | 2.0 | 0.00 | 0.00 | 0.00 | 81 | 1019.4 |
| 20260506082525 | 58 | 315 | 1.0 | 2.0 | 0.00 | 0.00 | 0.00 | 81 | 1019.3 |
| 20260506082009 | 58 | 338 | 1.0 | 2.0 | 0.00 | 0.00 | 0.00 | 81 | 1019.4 |
| 20260506081504 | 58 | 338 | 1.0 | 2.0 | 0.00 | 0.00 | 0.00 | 81 | 1019.4 |
| 20260506081005 | 58 | 45 | 1.0 | 3.0 | 0.00 | 0.00 | 0.00 | 81 | 1019.4 |
| 20260506080504 | 58 | 338 | 1.0 | 2.0 | 0.00 | 0.00 | 0.00 | 81 | 1019.3 |
| 20260506073504 | 58 | 45 | 1.0 | 2.0 | 0.00 | 0.00 | 0.00 | 80 | 1019.2 |
| 20260506073004 | 58 | 45 | 1.0 | 2.0 | 0.00 | 0.00 | 0.00 | 80 | 1019.1 |
| 20260506072503 | 58 | 338 | 1.0 | 3.0 | 0.00 | 0.00 | 0.00 | 80 | 1019.2 |
| 20260506072003 | 58 | 338 | 1.0 | 3.0 | 0.00 | 0.00 | 0.00 | 80 | 1019.1 |
| 20260506071504 | 58 | 45 | 1.0 | 3.0 | 0.00 | 0.00 | 0.00 | 80 | 1019.1 |
| 20260506071003 | 58 | 338 | 1.0 | 2.0 | 0.00 | 0.00 | 0.00 | 80 | 1019.1 |
| 20260506070503 | 58 | 338 | 1.0 | 2.0 | 0.00 | 0.00 | 0.00 | 80 | 1018.9 |
| 20260506062503 | 58 | 338 | 1.0 | 2.0 | 0.00 | 0.00 | 0.00 | 79 | 1018.9 |
| 20260506062003 | 58 | 315 | 1.0 | 2.0 | 0.00 | 0.00 | 0.00 | 79 | 1018.8 |
| 20260506061503 | 58 | 0 | 1.0 | 3.0 | 0.00 | 0.00 | 0.00 | 79 | 1018.8 |
| 20260506061004 | 58 | 0 | 1.0 | 3.0 | 0.00 | 0.00 | 0.00 | 79 | 1018.7 |
| 20260506060503 | 58 | 0 | 1.0 | 3.0 | 0.00 | 0.00 | 0.00 | 78 | 1018.8 |
| 20260506051003 | 59 | 0.0 | 1.0 | 0.00 | 0.00 | 0.00 | 76 | 1018.2 | |
| 20260506050503 | 59 | 225 | 1.0 | 2.0 | 0.00 | 0.00 | 0.00 | 76 | 1018.1 |
| 20260506045003 | 59 | 225 | 1.0 | 3.0 | 0.00 | 0.00 | 0.00 | 75 | 1018.0 |
| 20260506044503 | 59 | 0.0 | 2.0 | 0.00 | 0.00 | 0.00 | 75 | 1017.9 | |
| 20260506044003 | 59 | 0.0 | 2.0 | 0.00 | 0.00 | 0.00 | 75 | 1017.9 | |
| 20260506043503 | 59 | 225 | 1.0 | 2.0 | 0.00 | 0.00 | 0.00 | 75 | 1018.0 |
| 20260506043003 | 59 | 0.0 | 2.0 | 0.00 | 0.00 | 0.00 | 75 | 1017.9 | |
| 20260506042503 | 59 | 0.0 | 2.0 | 0.00 | 0.00 | 0.00 | 75 | 1017.9 | |
| 20260506042003 | 59 | 293 | 1.0 | 3.0 | 0.00 | 0.00 | 0.00 | 75 | 1017.8 |
| 20260506041503 | 59 | 0.0 | 2.0 | 0.00 | 0.00 | 0.00 | 75 | 1017.8 | |
| 20260506041003 | 59 | 315 | 1.0 | 3.0 | 0.00 | 0.00 | 0.00 | 75 | 1017.7 |
| 20260506040503 | 59 | 293 | 1.0 | 4.0 | 0.00 | 0.00 | 0.00 | 75 | 1017.5 |
| 20260506040003 | 59 | 270 | 1.0 | 3.0 | 0.00 | 0.00 | 0.00 | 75 | 1017.5 |
| 20260506035502 | 60 | 293 | 1.0 | 2.0 | 0.00 | 0.00 | 0.00 | 75 | 1017.4 |
| 20260506035003 | 60 | 270 | 1.0 | 3.0 | 0.00 | 0.00 | 0.00 | 75 | 1017.3 |
| 20260506034503 | 60 | 270 | 1.0 | 3.0 | 0.00 | 0.00 | 0.00 | 74 | 1017.3 |
| 20260506034023 | 60 | 338 | 1.0 | 2.0 | 0.00 | 0.00 | 0.00 | 74 | 1017.2 |
| 20260506033523 | 60 | 315 | 1.0 | 3.0 | 0.00 | 0.00 | 0.00 | 74 | 1017.1 |
| 20260506033003 | 60 | 225 | 1.0 | 2.0 | 0.00 | 0.00 | 0.00 | 74 | 1017.0 |
| 20260506032502 | 60 | 225 | 1.0 | 3.0 | 0.00 | 0.00 | 0.00 | 74 | 1017.1 |
| 20260506032005 | 60 | 270 | 1.0 | 4.0 | 0.00 | 0.00 | 0.00 | 73 | 1017.0 |
| 20260506031525 | 60 | 203 | 1.0 | 3.0 | 0.00 | 0.00 | 0.00 | 73 | 1016.9 |
| 20260506031005 | 60 | 270 | 1.0 | 3.0 | 0.00 | 0.00 | 0.00 | 73 | 1016.9 |
| 20260506030505 | 60 | 225 | 1.0 | 4.0 | 0.00 | 0.00 | 0.00 | 72 | 1016.9 |
| 20260506030005 | 60 | 225 | 1.0 | 3.0 | 0.00 | 0.00 | 0.00 | 72 | 1016.8 |
| 20260506025506 | 60 | 0.0 | 2.0 | 0.00 | 0.00 | 0.00 | 72 | 1016.8 | |
| 20260506025005 | 60 | 0.0 | 2.0 | 0.00 | 0.00 | 0.00 | 72 | 1016.7 | |
| 20260506024505 | 60 | 225 | 1.0 | 3.0 | 0.00 | 0.00 | 0.00 | 72 | 1016.4 |
| 20260506024005 | 60 | 225 | 2.0 | 4.0 | 0.00 | 0.00 | 0.00 | 72 | 1016.5 |
| 20260506023504 | 61 | 248 | 1.0 | 4.0 | 0.00 | 0.00 | 0.00 | 72 | 1016.4 |
| 20260506023005 | 61 | 225 | 1.0 | 5.0 | 0.00 | 0.00 | 0.00 | 71 | 1016.5 |
| 20260506022505 | 61 | 225 | 1.0 | 5.0 | 0.00 | 0.00 | 0.00 | 71 | 1016.4 |
| 20260506022005 | 61 | 225 | 2.0 | 6.0 | 0.00 | 0.00 | 0.00 | 71 | 1016.4 |
| 20260506021505 | 61 | 225 | 1.0 | 4.0 | 0.00 | 0.00 | 0.00 | 71 | 1016.3 |
| 20260506021004 | 61 | 225 | 2.0 | 5.0 | 0.00 | 0.00 | 0.00 | 71 | 1016.2 |
| 20260506020505 | 61 | 225 | 1.0 | 4.0 | 0.00 | 0.00 | 0.00 | 70 | 1016.2 |
| 20260506020005 | 61 | 270 | 1.0 | 4.0 | 0.00 | 0.00 | 0.00 | 70 | 1016.4 |
| 20260506015505 | 61 | 293 | 1.0 | 4.0 | 0.00 | 0.00 | 0.00 | 70 | 1016.3 |
| 20260506015005 | 61 | 248 | 2.0 | 4.0 | 0.00 | 0.00 | 0.00 | 70 | 1016.4 |
| 20260506014505 | 61 | 203 | 1.0 | 3.0 | 0.00 | 0.00 | 0.00 | 70 | 1016.3 |
| 20260506014004 | 62 | 225 | 1.0 | 3.0 | 0.00 | 0.00 | 0.00 | 70 | 1016.4 |
| 20260506013505 | 62 | 225 | 1.0 | 2.0 | 0.00 | 0.00 | 0.00 | 70 | 1016.4 |
| 20260506013004 | 62 | 293 | 1.0 | 2.0 | 0.00 | 0.00 | 0.00 | 70 | 1016.3 |
| 20260506012505 | 62 | 225 | 2.0 | 5.0 | 0.00 | 0.00 | 0.00 | 69 | 1016.4 |
| 20260506012045 | 62 | 248 | 1.0 | 4.0 | 0.00 | 0.00 | 0.00 | 69 | 1016.3 |
| 20260506011504 | 62 | 315 | 1.0 | 4.0 | 0.00 | 0.00 | 0.00 | 69 | 1016.3 |
| 20260506011005 | 62 | 270 | 1.0 | 3.0 | 0.00 | 0.00 | 0.00 | 69 | 1016.3 |
| 20260506010505 | 62 | 225 | 2.0 | 6.0 | 0.00 | 0.00 | 0.00 | 69 | 1016.4 |
| 20260506010004 | 62 | 225 | 2.0 | 5.0 | 0.00 | 0.00 | 0.00 | 68 | 1016.3 |
| 20260506005505 | 62 | 315 | 2.0 | 4.0 | 0.00 | 0.00 | 0.00 | 69 | 1016.3 |
| 20260506005025 | 62 | 225 | 1.0 | 4.0 | 0.00 | 0.00 | 0.00 | 69 | 1016.2 |
| 20260506004505 | 62 | 225 | 2.0 | 4.0 | 0.00 | 0.00 | 0.00 | 69 | 1016.3 |
| 20260506004004 | 62 | 225 | 1.0 | 6.0 | 0.00 | 0.00 | 0.00 | 69 | 1016.2 |
| 20260506003524 | 62 | 225 | 2.0 | 5.0 | 0.00 | 0.00 | 0.00 | 69 | 1016.1 |
| 20260506003005 | 62 | 270 | 2.0 | 6.0 | 0.00 | 0.00 | 0.00 | 69 | 1016.1 |
| 20260506002525 | 63 | 225 | 2.0 | 4.0 | 0.00 | 0.00 | 0.00 | 69 | 1016.1 |
| 20260506002004 | 63 | 225 | 1.0 | 3.0 | 0.00 | 0.00 | 0.00 | 68 | 1016.1 |
| 20260506001505 | 63 | 225 | 2.0 | 5.0 | 0.00 | 0.00 | 0.00 | 68 | 1016.0 |
| 20260506001004 | 63 | 248 | 2.0 | 5.0 | 0.00 | 0.00 | 0.00 | 68 | 1016.0 |
| 20260506000504 | 63 | 225 | 1.0 | 3.0 | 0.00 | 0.00 | 0.00 | 68 | 1015.9 |
| 20260506000004 | 64 | 338 | 1.0 | 4.0 | 0.00 | 0.00 | 0.00 | 67 | 1015.9 |
| 20260505235525 | 64 | 338 | 1.0 | 3.0 | 0.00 | 0.00 | 0.00 | 67 | 1015.9 |
| 20260505235004 | 64 | 293 | 1.0 | 3.0 | 0.00 | 0.00 | 0.00 | 67 | 1015.9 |
| 20260505234504 | 64 | 248 | 1.0 | 3.0 | 0.00 | 0.00 | 0.00 | 66 | 1015.9 |
| 20260505234024 | 64 | 203 | 1.0 | 4.0 | 0.00 | 0.00 | 0.00 | 66 | 1015.9 |
| 20260505233504 | 64 | 270 | 1.0 | 2.0 | 0.00 | 0.00 | 0.00 | 65 | 1015.9 |
| 20260505233044 | 64 | 225 | 1.0 | 3.0 | 0.00 | 0.00 | 0.00 | 65 | 1015.9 |
| 20260505232504 | 65 | 248 | 1.0 | 3.0 | 0.00 | 0.00 | 0.00 | 65 | 1016.0 |
| 20260505232024 | 65 | 225 | 1.0 | 2.0 | 0.00 | 0.00 | 0.00 | 64 | 1016.0 |
| 20260505231504 | 65 | 225 | 1.0 | 3.0 | 0.00 | 0.00 | 0.00 | 64 | 1015.9 |
| 20260505231004 | 65 | 293 | 1.0 | 3.0 | 0.00 | 0.00 | 0.00 | 64 | 1016.0 |
| 20260505230525 | 65 | 315 | 1.0 | 2.0 | 0.00 | 0.00 | 0.00 | 64 | 1015.9 |
| 20260505230024 | 65 | 315 | 1.0 | 3.0 | 0.00 | 0.00 | 0.00 | 64 | 1016.0 |
| 20260505225504 | 65 | 45 | 1.0 | 2.0 | 0.00 | 0.00 | 0.00 | 64 | 1016.0 |
| 20260505225004 | 65 | 338 | 1.0 | 3.0 | 0.00 | 0.00 | 0.00 | 64 | 1015.9 |
| 20260505224504 | 65 | 293 | 2.0 | 4.0 | 0.00 | 0.00 | 0.00 | 64 | 1015.9 |
| 20260505224004 | 65 | 0.0 | 2.0 | 0.00 | 0.00 | 0.00 | 64 | 1015.9 | |
| 20260505223504 | 64 | 338 | 1.0 | 4.0 | 0.00 | 0.00 | 0.00 | 64 | 1016.0 |
| 20260505223005 | 64 | 338 | 2.0 | 6.0 | 0.00 | 0.00 | 0.00 | 64 | 1016.0 |
| 20260505222504 | 64 | 338 | 2.0 | 4.0 | 0.00 | 0.00 | 0.00 | 65 | 1016.1 |
| 20260505222004 | 64 | 315 | 2.0 | 4.0 | 0.00 | 0.00 | 0.00 | 64 | 1016.2 |
| 20260505221524 | 64 | 338 | 2.0 | 5.0 | 0.00 | 0.00 | 0.00 | 64 | 1016.1 |
| 20260505221005 | 64 | 0 | 1.0 | 4.0 | 0.00 | 0.00 | 0.00 | 65 | 1016.1 |
| 20260505220504 | 64 | 338 | 1.0 | 5.0 | 0.00 | 0.00 | 0.00 | 65 | 1016.2 |
| 20260505220004 | 64 | 338 | 1.0 | 2.0 | 0.00 | 0.00 | 0.00 | 65 | 1016.2 |
| 20260505215504 | 64 | 338 | 1.0 | 4.0 | 0.00 | 0.00 | 0.00 | 65 | 1016.2 |
| 20260505215004 | 64 | 293 | 1.0 | 4.0 | 0.00 | 0.00 | 0.00 | 65 | 1016.3 |
| 20260505214504 | 64 | 315 | 1.0 | 5.0 | 0.00 | 0.00 | 0.00 | 66 | 1016.2 |
| 20260505214004 | 64 | 338 | 1.0 | 5.0 | 0.00 | 0.00 | 0.00 | 66 | 1016.4 |
| 20260505213504 | 63 | 338 | 1.0 | 3.0 | 0.00 | 0.00 | 0.00 | 66 | 1016.4 |
| 20260505213004 | 63 | 338 | 1.0 | 3.0 | 0.00 | 0.00 | 0.00 | 67 | 1016.5 |
| 20260505212524 | 63 | 315 | 2.0 | 3.0 | 0.00 | 0.00 | 0.00 | 66 | 1016.4 |
| 20260505212004 | 63 | 338 | 2.0 | 4.0 | 0.00 | 0.00 | 0.00 | 67 | 1016.4 |
| 20260505211524 | 64 | 338 | 3.0 | 6.0 | 0.00 | 0.00 | 0.00 | 66 | 1016.5 |
| 20260505211004 | 64 | 45 | 2.0 | 5.0 | 0.00 | 0.00 | 0.00 | 65 | 1016.4 |
| 20260505210504 | 65 | 338 | 1.0 | 3.0 | 0.00 | 0.00 | 0.00 | 65 | 1016.3 |
| 20260505210004 | 65 | 45 | 1.0 | 3.0 | 0.00 | 0.00 | 0.00 | 64 | 1016.4 |
| 20260505205504 | 65 | 45 | 1.0 | 3.0 | 0.00 | 0.00 | 0.00 | 63 | 1016.3 |
| 20260505205004 | 65 | 0.0 | 2.0 | 0.00 | 0.00 | 0.00 | 63 | 1016.2 | |
| 20260505204504 | 65 | 338 | 1.0 | 3.0 | 0.00 | 0.00 | 0.00 | 64 | 1016.2 |
| 20260505204004 | 65 | 135 | 1.0 | 2.0 | 0.00 | 0.00 | 0.00 | 65 | 1016.3 |
| 20260505203504 | 64 | 0.0 | 2.0 | 0.00 | 0.00 | 0.00 | 66 | 1016.3 | |
| 20260505203004 | 64 | 45 | 2.0 | 4.0 | 0.00 | 0.00 | 0.00 | 65 | 1016.3 |
| 20260505202503 | 64 | 23 | 2.0 | 4.0 | 0.00 | 0.00 | 0.00 | 64 | 1016.3 |
| 20260505202004 | 65 | 315 | 1.0 | 4.0 | 0.00 | 0.00 | 0.00 | 63 | 1016.5 |
| 20260505201504 | 65 | 315 | 1.0 | 3.0 | 0.00 | 0.00 | 0.00 | 63 | 1016.5 |
| 20260505201004 | 65 | 338 | 1.0 | 3.0 | 0.00 | 0.00 | 0.00 | 62 | 1016.7 |
| 20260505200503 | 65 | 248 | 1.0 | 3.0 | 0.00 | 0.00 | 0.00 | 62 | 1016.7 |
| 20260505200003 | 65 | 225 | 1.0 | 3.0 | 0.00 | 0.00 | 0.00 | 63 | 1016.7 |
| 20260505195504 | 65 | 315 | 1.0 | 3.0 | 0.00 | 0.00 | 0.00 | 65 | 1016.6 |
| 20260505195024 | 64 | 338 | 2.0 | 5.0 | 0.00 | 0.00 | 0.00 | 66 | 1016.7 |
| 20260505194504 | 64 | 315 | 1.0 | 4.0 | 0.00 | 0.00 | 0.00 | 66 | 1016.7 |
| 20260505194003 | 64 | 315 | 2.0 | 4.0 | 0.00 | 0.00 | 0.00 | 67 | 1016.7 |
| 20260505193504 | 63 | 203 | 1.0 | 4.0 | 0.00 | 0.00 | 0.00 | 68 | 1016.8 |
| 20260505193004 | 63 | 315 | 2.0 | 4.0 | 0.00 | 0.00 | 0.00 | 69 | 1016.8 |
| 20260505192504 | 63 | 338 | 1.0 | 3.0 | 0.00 | 0.00 | 0.00 | 70 | 1016.8 |
| 20260505192003 | 63 | 270 | 2.0 | 5.0 | 0.00 | 0.00 | 0.00 | 69 | 1016.8 |
| 20260505191524 | 63 | 293 | 2.0 | 5.0 | 0.00 | 0.00 | 0.00 | 69 | 1016.8 |
| 20260505191003 | 63 | 248 | 2.0 | 4.0 | 0.00 | 0.00 | 0.00 | 69 | 1016.7 |
| 20260505190504 | 63 | 293 | 1.0 | 4.0 | 0.00 | 0.00 | 0.00 | 69 | 1016.8 |
| 20260505190004 | 63 | 270 | 2.0 | 6.0 | 0.00 | 0.00 | 0.00 | 70 | 1016.9 |
| 20260505185503 | 63 | 293 | 2.0 | 7.0 | 0.00 | 0.00 | 0.00 | 70 | 1016.8 |
| 20260505185025 | 63 | 293 | 2.0 | 4.0 | 0.00 | 0.00 | 0.00 | 71 | 1016.7 |
| 20260505184503 | 62 | 270 | 1.0 | 3.0 | 0.00 | 0.00 | 0.00 | 72 | 1016.7 |
| 20260505184004 | 61 | 225 | 2.0 | 5.0 | 0.00 | 0.00 | 0.00 | 73 | 1016.8 |
| 20260505183503 | 61 | 315 | 1.0 | 2.0 | 0.00 | 0.00 | 0.00 | 74 | 1016.9 |
| 20260505183024 | 60 | 315 | 1.0 | 3.0 | 0.00 | 0.00 | 0.00 | 75 | 1016.9 |
| 20260505182504 | 60 | 248 | 1.0 | 4.0 | 0.00 | 0.00 | 0.00 | 75 | 1016.8 |
| 20260505182004 | 60 | 225 | 1.0 | 5.0 | 0.00 | 0.00 | 0.00 | 76 | 1016.9 |
| 20260505181504 | 60 | 315 | 1.0 | 3.0 | 0.00 | 0.00 | 0.00 | 76 | 1016.7 |
| 20260505181024 | 60 | 338 | 2.0 | 5.0 | 0.00 | 0.00 | 0.00 | 76 | 1016.8 |
| 20260505180503 | 59 | 315 | 1.0 | 3.0 | 0.00 | 0.00 | 0.00 | 78 | 1016.7 |
| 20260505180003 | 59 | 315 | 1.0 | 3.0 | 0.00 | 0.00 | 0.00 | 77 | 1016.7 |
| 20260505175524 | 59 | 293 | 2.0 | 3.0 | 0.00 | 0.00 | 0.00 | 78 | 1016.8 |
| 20260505175003 | 58 | 225 | 1.0 | 3.0 | 0.00 | 0.00 | 0.00 | 79 | 1016.7 |
| 20260505174504 | 58 | 248 | 1.0 | 4.0 | 0.00 | 0.00 | 0.00 | 79 | 1016.7 |
| 20260505174024 | 58 | 225 | 1.0 | 3.0 | 0.00 | 0.00 | 0.00 | 80 | 1016.6 |
| 20260505173523 | 58 | 293 | 1.0 | 3.0 | 0.00 | 0.00 | 0.00 | 80 | 1016.6 |
| 20260505173003 | 58 | 338 | 1.0 | 2.0 | 0.00 | 0.00 | 0.00 | 79 | 1016.4 |
| 20260505172504 | 58 | 338 | 2.0 | 5.0 | 0.00 | 0.00 | 0.00 | 79 | 1016.5 |
| 20260505172003 | 58 | 23 | 2.0 | 3.0 | 0.00 | 0.00 | 0.00 | 79 | 1016.4 |
| 20260505171503 | 58 | 45 | 1.0 | 3.0 | 0.00 | 0.00 | 0.00 | 78 | 1016.4 |
| 20260505171004 | 58 | 315 | 1.0 | 3.0 | 0.00 | 0.00 | 0.00 | 78 | 1016.4 |
| 20260505170524 | 58 | 315 | 1.0 | 2.0 | 0.00 | 0.00 | 0.00 | 78 | 1016.4 |
| 20260505170004 | 58 | 315 | 1.0 | 2.0 | 0.00 | 0.00 | 0.00 | 78 | 1016.3 |
| 20260505165503 | 58 | 315 | 1.0 | 2.0 | 0.00 | 0.00 | 0.00 | 78 | 1016.4 |
| 20260505165024 | 58 | 315 | 1.0 | 2.0 | 0.00 | 0.00 | 0.00 | 78 | 1016.3 |
| 20260505164504 | 58 | 293 | 1.0 | 3.0 | 0.00 | 0.00 | 0.00 | 77 | 1016.2 |
| 20260505164003 | 58 | 315 | 1.0 | 4.0 | 0.00 | 0.00 | 0.00 | 78 | 1016.3 |
| 20260505163503 | 58 | 338 | 1.0 | 3.0 | 0.00 | 0.00 | 0.00 | 78 | 1016.2 |
| 20260505163003 | 57 | 0.0 | 2.0 | 0.00 | 0.00 | 0.00 | 78 | 1016.2 | |
| 20260505162503 | 57 | 338 | 1.0 | 2.0 | 0.00 | 0.00 | 0.00 | 78 | 1016.2 |
| 20260505162004 | 57 | 315 | 1.0 | 2.0 | 0.00 | 0.00 | 0.00 | 78 | 1016.1 |
| 20260505161503 | 57 | 315 | 1.0 | 2.0 | 0.00 | 0.00 | 0.00 | 78 | 1016.2 |
| 20260505161003 | 57 | 248 | 1.0 | 2.0 | 0.00 | 0.00 | 0.00 | 78 | 1016.1 |
| 20260505160503 | 56 | 0.0 | 2.0 | 0.00 | 0.00 | 0.00 | 79 | 1016.2 | |
| 20260505153003 | 55 | 0.0 | 2.0 | 0.00 | 0.00 | 0.00 | 84 | 1016.0 | |
| 20260505152503 | 55 | 203 | 1.0 | 2.0 | 0.00 | 0.00 | 0.00 | 84 | 1015.9 |
| 20260505152003 | 55 | 135 | 1.0 | 2.0 | 0.00 | 0.00 | 0.00 | 85 | 1015.9 |
| 20260505151503 | 55 | 203 | 1.0 | 2.0 | 0.00 | 0.00 | 0.00 | 85 | 1015.8 |
| 20260505151003 | 55 | 180 | 1.0 | 2.0 | 0.00 | 0.00 | 0.00 | 86 | 1015.8 |
| 20260505150503 | 54 | 180 | 1.0 | 2.0 | 0.00 | 0.00 | 0.00 | 86 | 1015.8 |
| 20260505140503 | 53 | 0.0 | 2.0 | 0.00 | 0.00 | 0.00 | 88 | 1015.6 | |
| 20260505125005 | 53 | 0.0 | 1.0 | 0.00 | 0.00 | 0.00 | 87 | 1015.2 | |
| 20260505124505 | 53 | 0.0 | 1.0 | 0.00 | 0.00 | 0.00 | 87 | 1015.3 | |
| 20260505124005 | 53 | 0.0 | 1.0 | 0.00 | 0.00 | 0.00 | 86 | 1015.3 | |
| 20260505123505 | 53 | 0.0 | 1.0 | 0.00 | 0.00 | 0.00 | 86 | 1015.2 | |
| 20260505123005 | 53 | 0.0 | 1.0 | 0.00 | 0.00 | 0.00 | 86 | 1015.5 | |
| 20260505122505 | 53 | 0.0 | 1.0 | 0.00 | 0.00 | 0.00 | 86 | 1015.4 | |
| 20260505122005 | 53 | 0.0 | 1.0 | 0.00 | 0.00 | 0.00 | 86 | 1015.2 | |
| 20260505121505 | 53 | 0.0 | 1.0 | 0.00 | 0.00 | 0.00 | 86 | 1015.4 | |
| 20260505121025 | 53 | 0.0 | 1.0 | 0.00 | 0.00 | 0.00 | 85 | 1015.3 | |
| 20260505120505 | 53 | 0.0 | 1.0 | 0.00 | 0.00 | 0.00 | 85 | 1015.1 | |
| 20260505120025 | 53 | 0.0 | 1.0 | 0.00 | 0.00 | 0.00 | 85 | 1015.1 | |
| 20260505115505 | 53 | 0.0 | 1.0 | 0.00 | 0.00 | 0.00 | 85 | 1015.2 | |
| 20260505115005 | 53 | 0.0 | 1.0 | 0.00 | 0.00 | 0.00 | 84 | 1015.3 | |
| 20260505114525 | 53 | 0.0 | 1.0 | 0.00 | 0.00 | 0.00 | 84 | 1015.3 |